Location: Astronomy Club of Akron Observatory
(40.9700°N, 81.5606°W)
Time: 17:34:36
(UTC-05:00)

Hubble Space Telescope - Pass Details

Date: 20 July 2018
Orbit: 537 x 540 km, 28.5° (Epoch: 08 December)

Event Time Altitude Azimuth Distance (km) Brightness Sun altitude
Exits shadow 05:12:17 12° 207° (SSW) 1,665 2.7 -10.1°
Maximum altitude 05:13:44 14° 185° (S) 1,556 2.7 -9.9°
Drops below altitude 10° 05:15:50 10° 154° (SSE) 1,778 3.3 -9.6°
Sets 05:19:02 0° 128° (SE) 2,667 4.5 -9.1°
